Regional Weather Roundup
Issued by NWS Pendleton, OR

Home | Current Version | Previous Version | Text Only | Print | Product List | Glossary On
Versions: 1 2 3 4 5 6 7 8 9 10 11 12 13 14 15 16 17 18 19 20 21 22 23 24 25 26 27 28 29 30 31 32 33 34 35 36 37 38 39 40 41 42 43 44 45 46 47 48 49 50
000
ASUS46 KPDT 231025
RWRPDT
PENDLETON REGIONAL WEATHER ROUNDUP
NATIONAL WEATHER SERVICE PENDLETON OREGON
300 AM PDT WED APR 23 2014

NOTE: FAIR INDICATES FEW OR NO CLOUDS BELOW 12,000 FEET WITH NO
SIGNIFICANT WEATHER AND/OR OBSTRUCTIONS TO VISIBILITY.

# INDICATES UNOFFICIAL STATION AND DATA

WAZ520-231110-
EAST SLOPES OF WASHINGTON CASCADES

CITY            SKY/WX      TMP DP  RH  WIND    PRES   REMARKS
#CLE ELUM HS    N/A         36  34  92  CALM    29.80F
#CLE ELUM 2NW   N/A         35  34  96  CALM    N/A
#CLE ELUM LAKE  N/A         32  31  96  CALM    29.84F
#CLIFFDEL 2NW   N/A         32  30  92  N1      N/A
#GLENWOOD       N/A         38  36  92  S2      29.91S
#MANASTASH CYN  N/A         32  25  75  CALM    29.81S
#NELSON         N/A         35  34  96  CALM    29.89S
#NELSON 3SW     N/A         32  31  96  CALM    30.07F
#NILE           N/A         33  30  89  CALM    29.18S
#RONALD 2NW     N/A         35  31  85  CALM    29.70S
#TEANAWAY 4NE   N/A         34  32  92  CALM    N/A
#TROUT LAKE HS  N/A         39  39  100 SW1     N/A
#TROUT LAKE 1NE N/A         36  35  96  CALM    29.91F
$$

WAZ521-231110-
SIMCOE HIGHLANDS

CITY            SKY/WX      TMP DP  RH  WIND    PRES   REMARKS
#BICKLETON HS   N/A         35  31  85  W14     29.85F WCI 26
#CENTERVILLE 4W N/A         41  36  82  NW3     29.66S
#CENTERVILLE 1SWN/A         39  35  85  CALM    29.89F
#GOLDENDALE 1NE N/A         41  37  86  SW3     N/A
#GOLDENDALE 1S  N/A         40  37  89  W2      29.88F
#GOLDENDALE 5WNWN/A         40  36  85  CALM    29.91F
#GOODNOE HILLS  N/A         44  36  73  W15     29.84S WCI 37
#LYLE 6NE       N/A         40  37  89  SW2     29.90F
$$

WAZ026-231110-
KITTITAS VALLEY

CITY            SKY/WX      TMP DP  RH  WIND    PRES   REMARKS
ELLENSBURG AP   CLOUDY      35  30  82  NW5     29.84S
#ELLENSBURG CWU N/A         34  31  89  N1      29.81S
#ELLENSBURG 3NE N/A         33  31  92  CALM    29.85S
#ELLENSBURG     N/A         38  37  96  NW2     N/A
#ELLENSBURG 1E  N/A         32  28  85  CALM    N/A
#THORP 6N       N/A         34  32  92  N5      29.88S
$$

WAZ027-231110-
YAKIMA VALLEY

CITY            SKY/WX      TMP DP  RH  WIND    PRES   REMARKS
YAKIMA AIRPORT  CLOUDY      40  33  76  W6      29.85S
YAKIMA-VAGABOND MOCLDY      42  33  70  N6      29.85S
#COWICHE 1N     N/A         38  28  67  CALM    29.99S
#DONALD 2NE     N/A         43  32  65  S1      30.19F
#GRANDVIEW      N/A         46  34  63  SW3     29.90F
#MABTON         N/A         47  37  68  S7      29.89S
#MOXEE 2E       N/A         44  29  55  SW5     29.82F
#NACHES 2SW     N/A         37  32  82  CALM    29.84R
#OUTLOOK DOT    N/A         46  35  65  CALM    N/A
#SELAH 8E       N/A         40  33  76  S10     N/A
#TERRACE HTS    N/A         42  34  73  CALM    29.82F
#TOPPENISH      N/A         47  35  63  N1      29.79S
#WAPATO 4NE     N/A         43  32  65  S1      30.19F
#WEST VALLEY    N/A         40  33  76  CALM    29.87F
#W YAKIMA       N/A         39  33  79  NW1     29.85S
#WHITE SWAN 5E  N/A         44  36  73  W10     29.86F
#WILEY CITY 3W  N/A         34  24  66  CALM    29.85S
$$

WAZ028-231110-
LOWER COLUMBIA BASIN...WASHINGTON

CITY            SKY/WX      TMP DP  RH  WIND    PRES   REMARKS
HANFORD         CLOUDY      48  34  58  SW18G26 29.86S WCI 41
PASCO           CLOUDY      47  36  65  S7      29.91S
PROSSER AWOS    N/A         46  36  68  SW6     29.93R
RICHLAND AWOS   CLOUDY      46  36  68  CALM    29.90S
#BASIN CITY 5SW N/A         47  37  68  S3      29.88S
#BENTON CITY    N/A         46  35  65  SW20G31 29.78S WCI 38
#CONNELL 5N     N/A         42  36  79  SW8     29.86F
#CONNELL 5NW    N/A         42  18  38  CALM    29.84R
#ELTOPIA 6NW    N/A         43  38  82  SE7     28.85S
#KENNEWICK 3S   N/A         42  38  86  S6      29.90R
#PASCO-BROADMOORN/A         46  37  71  CALM    29.82S
#PATERSON       N/A         44  39  82  CALM    29.91S
#PROSSER        N/A         45  34  65  S10     29.88F
#SAGEMOOR 2W    N/A         43  38  82  S6      29.74S
#TOUCHET 2S     N/A         45  35  68  S5      29.90F
#WEST PASCO     N/A         46  35  65  S1      29.89S
$$

WAZ029-231110-
FOOTHILLS OF THE BLUES...WASHINGTON

CITY            SKY/WX      TMP DP  RH  WIND    PRES   REMARKS
WALLA WALLA AP  CLOUDY      46  34  63  S8      29.92S
#COLLEGE PLACE  N/A         45  32  60  SE1     29.93F
#LOWDEN 2SE     N/A         43  38  82  E2      29.88F
#PLEASANT VIEW 1N/A         38  34  85  S10     29.93F
#PRESCOTT       N/A         40  35  82  CALM    29.91S
#SUDBURY        N/A         43  N/A N/A CALM    N/A
#WHITMAN COLLEGEN/A         45  35  68  E2      29.97S
#WAITSBURG 8N   N/A         39  28  64  S7      29.76S
#WALLA WALLA 5E N/A         43  34  70  SE5     N/A
#WHITMAN MISSIONN/A         43  38  82  CALM    29.92F
$$

WAZ030-231110-
BLUE MOUNTAINS...WASHINGTON

CITY            SKY/WX      TMP DP  RH  WIND    PRES   REMARKS
$$

ORZ009-041-WAZ024-231110-
COLUMBIA RIVER GORGE

CITY            SKY/WX      TMP DP  RH  WIND    PRES   REMARKS
HOOD RIVER AP   LGT DRIZZLE 43  41  93  CALM    29.94S
THE DALLES AP   CLOUDY      43  39  86  CALM    29.94S
#ARLINGTON AIRPON/A         43  38  82  SW12    N/A    WCI 37
#ARLINGTON HS   N/A         45  36  70  CALM    29.85S
#CELILO DOT     N/A         45  37  73  SW1     N/A
#MOSIER 1S      N/A         41  37  86  CALM    29.97S
#MURDOCK        N/A         46  43  89  CALM    29.96F
#RUFUS DOT      N/A         46  36  68  NW3     N/A

$$

ORZ510-231110-
NORTH CENTRAL OREGON

CITY            SKY/WX      TMP DP  RH  WIND    PRES   REMARKS
#CHENOWITH 1W   N/A         39  N/A N/A W13     N/A    WCI 31
#COW CYN RST AREN/A         38  -68  0  SW7     N/A
#GRASS VALLEY   N/A         37  33  85  S3      N/A
#GRASS VALLEY 1SN/A         37  32  82  SW7     29.95S
#KENT DOT       N/A         38  25  59  SW13    N/A    WCI 30
#MAUPIN SCHOOL  N/A         41  32  70  CALM    29.97F
#SHANIKO 5WSW   N/A         35  23  61  S16     N/A    WCI 25
#SHANIKO 4NW    N/A         35  27  72  SW2     29.88S
#TYGH VALLEY 2NEN/A         43  34  70  CALM    29.94S
#WASCO DOT      N/A         39  37  92  SW1     N/A
#WASCO 5NE      N/A         38  35  89  CALM    29.93F
$$

ORZ511-231110-
CENTRAL OREGON

CITY            SKY/WX      TMP DP  RH  WIND    PRES   REMARKS
BEND AIRPORT    MOCLDY      36  28  72  SW14    29.95S WCI 27
MADRAS AIRPORT  MOCLDY      37  30  75  S9      29.95F
REDMOND AIRPORT MOCLDY      38  28  67  S13     29.93F WCI 30
#BEND 6E        N/A         37  26  64  CALM    29.93F
#BEND 1SW       N/A         34  28  78  S3      N/A
#BEND-AWBREY    N/A         35  31  85  N12     29.98S WCI 27
#BEND-KIM LN    N/A         36  30  79  SW5     29.91S
#CULVER         N/A         39  29  67  SW2     29.90F
#LAKE BILLY CHINN/A         40  19  42  SE6     30.01F
#POWELL BUTTE   N/A         38  28  67  SW12    29.58F WCI 30
#PRINEVILLE 3N  N/A         38  29  70  CALM    29.94S
#WARM SPRINGS   N/A         44  33  65  CALM    29.92F


ORZ509-231110-
EAST SLOPES OF OREGON CASCADES

CITY            SKY/WX      TMP DP  RH  WIND    PRES   REMARKS
#BLUE BOX PASS  N/A         31  -16 12  SW7     N/A
#CAMP SHERMAN   N/A         36  32  85  CALM    29.97R
#LA PINE DOT    N/A         32  28  85  SE6     N/A
#LA PINE 4NW    N/A         31  27  85  CALM    30.06F
#LAVA BUTTE DOT N/A         31  28  88  S3      N/A
#SISTERS AIRPOR N/A         36  32  85  CALM    29.94F
#SISTERS ODOT   N/A         37  N/A N/A CALM    N/A
#SISTERS 3N     N/A         37  26  64  CALM    29.98S
#SUNRIVER       N/A         32  31  96  S3      29.88F
#SUNRIVER AP    N/A         32  30  92  SW7     29.97F
#SUTTLE LK DOT  N/A         28  28  100 CALM    N/A
#TUMALO 3W      N/A         35  30  82  E7      29.86S
#WANOGA BUTTE D N/A         25  24  96  SW7     N/A

$$

ORZ044-231110-
LOWER COLUMBIA BASIN...OREGON

CITY            SKY/WX      TMP DP  RH  WIND    PRES   REMARKS
HERMISTON       CLOUDY      42  37  82  S3      29.91F
#BOARDMAN SCHOOLN/A         42  35  76  CALM    29.93S
#BOARDMAN 3W    N/A         40  34  79  N3      29.62F
#BOARDMAN 8SW   N/A         41  36  82  CALM    29.92S
#IONE SCHOOL    N/A         47  33  58  SW6     29.90F
#IRRIGON 4NW    N/A         44  37  76  S5      N/A
#UMATILLA       N/A         44  35  70  CALM    29.90S
$$

ORZ507-231110-
NORTHERN FOOTHILLS OF THE BLUES

CITY            SKY/WX      TMP DP  RH  WIND    PRES   REMARKS
PENDLETON AIRPT CLOUDY      41  33  73  S8      29.90F
#ADAMS 3WNW     N/A         38  34  85  CALM    29.93S
#ATHENA         N/A         44  33  65  S1      29.94F
#HELIX SCHOOL   N/A         39  35  85  S7      29.92S
#HELIX 3N       N/A         38  34  85  S8      29.87F
#M-F FERNDALE   N/A         43  34  70  CALM    29.91F
#M-F GROVE ELEM N/A         45  31  58  CALM    29.90S
#M-FREEWATER 5SEN/A         41  33  73  CALM    29.92S
#PDT AQUATIC CTRN/A         40  31  70  E2      29.93S
#PENDLETON DNTN N/A         39  27  62  E2      29.89S
#PDT SUNRIDGE   N/A         38  35  89  CALM    29.93F
#PENDLETON 7NW  N/A         40  33  76  CALM    29.88F
#PILOT ROCK     N/A         45  29  53  S2      29.93S
#TUTUILLA       N/A         38  33  82  S1      29.85F
#UMAPINE 2E     N/A         45  35  68  S3      29.84F
#WESTON SCHOOL  N/A         43  28  55  SW8     29.96S

$$

ORZ508-231110-
SOUTHERN FOOTHILLS OF THE BLUES

CITY            SKY/WX      TMP DP  RH  WIND    PRES   REMARKS
LEXINGTON       CLOUDY      45  32  60  S8      29.92F
#AJAX           N/A         43  30  60  N14G26  29.91F WCI 36
#CONDON SCHOOL  N/A         41  31  67  SW12    29.87F WCI 34
#CONDON 5W      N/A         38  27  64  S15G25  29.86S WCI 29
#FOSSIL SCHOOL  N/A         40  30  67  CALM    29.90S
#HEPPNER 4NE    N/A         40  30  67  CALM    29.93F
#LEXINGTON 2SE  N/A         45  32  60  S5      29.89S
#MIKKALO        N/A         46  30  53  W8      29.90S
#OLEX 4N        N/A         46  35  65  SW10    29.90F
#RUGGS 5NE      N/A         40  26  57  S14     30.14R WCI 32
#RUGGS 2SW      N/A         40  29  64  SW7     29.98S

$$

ORZ502-503-231110-
BLUE MOUNTAINS

CITY            SKY/WX      TMP DP  RH  WIND    PRES   REMARKS
MEACHAM         LGT SNOW    32  29  89  CALM    29.89S
#BATTLE MTN DOT N/A         31  31  100 S7      N/A
#HARDMAN 10S    N/A         33  26  75  S10     29.96S
#HEPPNER 15SE   N/A         36  27  69  N1      29.80S
#LADD CYN SMT   N/A         29  23  78  SE12    N/A    WCI 19
#LADD CREEK ODOTN/A         29  28  96  SW1     N/A
#LONG CREEK HS  N/A         35  30  82  SW12    29.87S WCI 27
#N POWDER DOT   N/A         25  24  96  NE2     N/A
#TOLLGATE 9W    N/A         33  29  85  E2      N/A
#TROY SCHOOL    N/A         34  31  89  CALM    29.79S
#UKIAH          N/A         29  27  92  CALM    30.00S
#WESTON 4E      N/A         37  29  72  SE6     29.89S
$$

ORZ505-231110-
JOHN DAY BASIN

CITY            SKY/WX      TMP DP  RH  WIND    PRES   REMARKS
JOHN DAY        MOCLDY      37  27  67  S10     29.95R
#JOHN DAY KJDY  N/A         32  27  82  E1      29.83S
#DAYVILLE SCHOOLN/A         42  27  55  S5      29.94S
#MITCHELL SCHOOLN/A         40  31  70  CALM    30.01S
#MONUMENT HS    N/A         37  31  79  CALM    29.92S
#MT. VERNON 5SE N/A         35  25  66  E1      29.90S
$$

ORZ506-231110-
OCHOCO AND JOHN DAY HIGHLANDS

CITY            SKY/WX      TMP DP  RH  WIND    PRES   REMARKS
#ANTONE         N/A         32  N/A N/A CALM    N/A
#BUCK CREEK DOT N/A         37  32  82  SW7     N/A
#HORSE RIDGE DO N/A         35  24  64  S7      N/A
#KEYES SMT DOT  N/A         35  24  64  SW3     N/A
#PAULINA SCHOOL N/A         35  26  69  SW3     29.94S
#PINE MTN OBS   N/A         25  22  88  S10     N/A
#PRAIRIE CITY   N/A         21  17  84  E2      30.20R
#SENECA 9NW     N/A         25  22  88  CALM    29.98S
$$

ORZ049-231110-
GRANDE RONDE VALLEY

CITY            SKY/WX      TMP DP  RH  WIND    PRES   REMARKS
LA GRANDE       CLOUDY      36  25  64  E3      29.92R
#COVE           N/A         35  30  82  E3      29.85S
#COVE SCHOOL    N/A         35  29  78  E2      29.91S
#COVE 6NW       N/A         30  26  85  CALM    30.01R
#ELGIN 3N       N/A         30  24  78  CALM    29.65S
#ELGIN 1E       N/A         33  28  82  CALM    N/A
#IMBLER SCHOOL  N/A         32  27  82  CALM    29.89S
#ISLAND CITY 4N N/A         33  29  85  CALM    29.90S
#LADD CYN DOT   N/A         35  26  69  SE10    N/A
#LA GRANDE ELEM N/A         36  29  75  CALM    29.92R
#UNION 1S       N/A         34  28  78  E5      29.87R
$$

ORZ050-231110-
WALLOWA COUNTY

CITY            SKY/WX      TMP DP  RH  WIND    PRES   REMARKS
JOSEPH AIRPORT  PTCLDY      27  25  92  CALM    29.90S
#ENTERPRISE HS  N/A         28  24  85  E1      29.93S
#IMNAHA SCHOOL  N/A         34  28  78  CALM    29.90S
#JOSEPH 3N      N/A         25  21  84  E1      29.93S
#LOSTINE        N/A         29  24  81  CALM    29.75S
#MT HOWARD 8000 N/A         18  13  80  W6      29.78R
#PROMISE 1S     N/A         32  26  78  NE1     30.03F
#SHEEP RDG 7000 N/A         22  18  84  CALM    29.97R
#WALLOWA SCHOOL N/A         29  25  85  CALM    30.88S



$$



USA.gov is the U.S. government's official web portal to all federal, state and local government web resources and services.